Nenana, AK

5:08 PM AKDT on July 20, 2017 (GMT -0800)
Nenana Municipal

Weather History for PANN - October, 2012

Change the Weather History Date:

Monday, October 15, 2012

  Actual Average Record
Temperature  
Mean Temperature 36 °F -  
Max Temperature 51 °F 34 °F 64 °F (1969)
Min Temperature 21 °F 18 °F 1 °F (2008)
Degree Days  
Heating Degree Days 29    
Moisture  
Dew Point 19 °F    
Average Humidity 81    
Maximum Humidity 95    
Minimum Humidity 71    
Precipitation  
Precipitation 0.47 in - - ()
Sea Level Pressure  
Sea Level Pressure 29.24 in    
Wind  
Wind Speed 5 mph (WNW)    
Max Wind Speed 15 mph    
Max Gust Speed -    
Visibility 4 miles    
Events Fog , Rain , Snow    
Averages and records for this station are not official NWS values.
T = Trace of Precipitation, MM = Missing Value Source: NWS Daily Summary

Daily Weather History Graph

Daily Weather History Graph

Search for Another Location

Airport or City:

Trip Planner

Search our weather history database for the weather conditions in past years. The results will help you decide how hot, cold, wet, or windy it might be!

Date:

Astronomy

Oct. 15, 2012 Rise Set
Actual Time 8:49 AM AKDT 6:32 PM AKDT
Civil Twilight 8:00 AM AKDT 7:21 PM AKDT
Nautical Twilight 7:04 AM AKDT 8:17 PM AKDT
Astronomical Twilight 6:07 AM AKDT 9:14 PM AKDT
Moon 9:41 AM AKDT (10/15) 6:02 PM AKDT (10/15)
Length of Visible Light 11h 21m
Length of Day
9h 42m
New Moon, 0% of the Moon is Illuminated
Oct 15
New Moon
Oct 21
First Quarter
Oct 29
Full
Nov 6
Last Quarter
Nov 13
New

Hourly Weather History & Observations

Time (AKDT) Temp. Windchill Dew Point Humidity Pressure Visibility Wind Dir Wind Speed Gust Speed Precip Events Conditions
12:53 AM 23.0 °F 17.0 °F 15.1 °F 72% 29.27 in 10.0 mi Variable 4.6 mph - N/A   Overcast
1:21 AM 23.0 °F 18.4 °F 15.8 °F 74% 29.24 in 10.0 mi NNW 3.5 mph - N/A   Overcast
1:53 AM 23.0 °F 18.4 °F 15.1 °F 72% 29.27 in 10.0 mi NNW 3.5 mph - N/A   Overcast
2:30 AM 23.0 °F 15.8 °F 15.8 °F 74% 29.23 in 10.0 mi NNW 5.8 mph - N/A   Overcast
2:53 AM 23.0 °F 18.4 °F 15.1 °F 72% 29.26 in 10.0 mi North 3.5 mph - N/A   Overcast
3:53 AM 23.0 °F 17.0 °F 15.1 °F 72% 29.26 in 10.0 mi NW 4.6 mph - 0.00 in   Overcast
4:53 AM 23.0 °F 18.4 °F 15.1 °F 72% 29.25 in 10.0 mi NW 3.5 mph - 0.00 in   Overcast
5:41 AM 23.0 °F 17.0 °F 15.8 °F 74% 29.21 in 10.0 mi NNW 4.6 mph - 0.00 in   Overcast
5:53 AM 23.0 °F 15.8 °F 15.1 °F 72% 29.24 in 10.0 mi NNW 5.8 mph - 0.00 in   Overcast
6:53 AM 23.0 °F - 15.1 °F 72% 29.24 in 10.0 mi Calm Calm - 0.00 in   Overcast
7:53 AM 23.0 °F 17.0 °F 15.1 °F 72% 29.24 in 10.0 mi NNW 4.6 mph - 0.00 in   Overcast
8:53 AM 23.0 °F 13.9 °F 15.1 °F 72% 29.24 in 10.0 mi NNW 8.1 mph - 0.00 in   Overcast
9:53 AM 23.0 °F 13.9 °F 16.0 °F 74% 29.24 in 10.0 mi NNW 8.1 mph - N/A   Overcast
10:53 AM 24.1 °F 16.0 °F 16.0 °F 71% 29.24 in 10.0 mi NW 6.9 mph - N/A   Overcast
11:51 AM 24.8 °F 16.1 °F 17.6 °F 74% 29.22 in 3.0 mi NNW 8.1 mph - 0.01 in Snow Light Snow
11:53 AM 24.1 °F 15.2 °F 17.1 °F 75% 29.25 in 3.0 mi NNW 8.1 mph - 0.01 in Snow Light Snow
11:58 AM 24.8 °F 16.1 °F 17.6 °F 74% 29.22 in 2.5 mi NNW 8.1 mph - 0.00 in Snow Light Snow
12:16 PM 23.0 °F 15.8 °F 17.6 °F 80% 29.22 in 1.5 mi NW 5.8 mph - 0.00 in Snow Light Snow
12:39 PM 23.0 °F 17.0 °F 19.4 °F 86% 29.22 in 0.8 mi Variable 4.6 mph - 0.01 in Snow Light Snow
12:53 PM 23.0 °F 15.8 °F 19.0 °F 85% 29.25 in 0.8 mi WNW 5.8 mph - 0.02 in Snow Light Snow
1:01 PM 23.0 °F 17.0 °F 19.4 °F 86% 29.22 in 0.5 mi WNW 4.6 mph - 0.00 in Fog , Snow Light Snow
1:49 PM 24.8 °F 19.1 °F 19.4 °F 80% 29.22 in 0.8 mi West 4.6 mph - 0.03 in Snow Light Snow
1:53 PM 24.1 °F 18.2 °F 19.9 °F 84% 29.26 in 0.8 mi Variable 4.6 mph - 0.03 in Snow Light Snow
2:10 PM 24.8 °F 17.9 °F 19.4 °F 80% 29.22 in 1.0 mi West 5.8 mph - 0.01 in Snow Light Snow
2:17 PM 24.8 °F 19.1 °F 19.4 °F 80% 29.22 in 0.8 mi WNW 4.6 mph - 0.01 in Snow Light Snow
2:30 PM 24.8 °F 16.9 °F 19.4 °F 80% 29.22 in 1.0 mi NW 6.9 mph - 0.01 in Snow Light Snow
2:41 PM 24.8 °F 17.9 °F 19.4 °F 80% 29.22 in 0.8 mi WNW 5.8 mph - 0.02 in Snow Light Snow
2:53 PM 24.1 °F 19.7 °F 19.9 °F 84% 29.25 in 1.0 mi WNW 3.5 mph - 0.02 in Snow Light Snow
3:10 PM 24.8 °F 19.1 °F 19.4 °F 80% 29.22 in 0.8 mi Variable 4.6 mph - 0.00 in Snow Light Snow
3:22 PM 23.0 °F 17.0 °F 19.4 °F 86% 29.22 in 0.5 mi Variable 4.6 mph - 0.01 in Fog , Snow Snow
3:40 PM 24.8 °F 20.5 °F 19.4 °F 80% 29.22 in 0.5 mi West 3.5 mph - 0.03 in Fog , Snow Snow
3:53 PM 23.0 °F 15.8 °F 19.9 °F 88% 29.26 in 0.8 mi West 5.8 mph - 0.03 in Snow Light Snow
4:13 PM 24.8 °F 20.5 °F 21.2 °F 86% 29.23 in 0.8 mi Variable 3.5 mph - 0.01 in Snow Light Snow
4:15 PM 24.8 °F 20.5 °F 21.2 °F 86% 29.23 in 1.0 mi Variable 3.5 mph - 0.01 in Snow Light Snow
4:53 PM 24.1 °F - 19.9 °F 84% 29.26 in 1.5 mi Calm Calm - 0.02 in Snow Light Snow
5:07 PM 24.8 °F 16.9 °F 19.4 °F 80% 29.23 in 3.0 mi Variable 6.9 mph - 0.00 in Snow Light Snow
5:26 PM 24.8 °F 20.5 °F 19.4 °F 80% 29.23 in 5.0 mi Variable 3.5 mph - 0.00 in Snow Light Snow
5:53 PM 23.0 °F 18.4 °F 19.0 °F 85% 29.26 in 3.0 mi Variable 3.5 mph - 0.00 in Snow Light Snow
6:05 PM 23.0 °F 17.0 °F 19.4 °F 86% 29.23 in 2.0 mi Variable 4.6 mph - 0.00 in Snow Light Snow
6:13 PM 23.0 °F 17.0 °F 19.4 °F 86% 29.23 in 1.5 mi WSW 4.6 mph - 0.00 in Snow Light Snow
6:33 PM 21.2 °F 13.6 °F 17.6 °F 86% 29.23 in 3.0 mi Variable 5.8 mph - 0.00 in Snow Light Snow
6:53 PM 21.9 °F 15.7 °F 18.0 °F 85% 29.27 in 4.0 mi Variable 4.6 mph - 0.00 in Snow Light Snow
7:50 PM 21.2 °F 14.9 °F 17.6 °F 86% 29.24 in 1.8 mi Variable 4.6 mph - 0.01 in Snow Light Snow
7:53 PM 21.0 °F 14.6 °F 18.0 °F 88% 29.28 in 1.2 mi Variable 4.6 mph - 0.01 in Snow Light Snow
8:26 PM 21.2 °F 14.9 °F 17.6 °F 86% 29.25 in 2.5 mi WSW 4.6 mph - 0.01 in Snow Light Snow
8:29 PM 21.2 °F 13.6 °F 17.6 °F 86% 29.25 in 3.0 mi WSW 5.8 mph - 0.01 in Snow Light Snow
8:53 PM 21.0 °F 14.6 °F 17.1 °F 85% 29.29 in 5.0 mi WSW 4.6 mph - 0.01 in Snow Light Snow
9:53 PM 21.0 °F 12.4 °F 17.1 °F 85% 29.30 in 3.0 mi WSW 6.9 mph - 0.01 in Snow Light Snow
10:53 PM 21.0 °F 16.2 °F 17.1 °F 85% 29.31 in 6.0 mi WSW 3.5 mph - 0.00 in Snow Light Snow
11:14 PM 21.2 °F 14.9 °F 17.6 °F 86% 29.28 in 2.0 mi Variable 4.6 mph - 0.00 in Snow Light Snow
11:46 PM 21.2 °F 14.9 °F 17.6 °F 86% 29.28 in 3.0 mi Variable 4.6 mph - 0.01 in Snow Light Snow
11:53 PM 21.0 °F 13.4 °F 17.1 °F 85% 29.31 in 4.0 mi WSW 5.8 mph - 0.01 in Snow Light Snow